Wind_Speed
28 28 27 28 28 27 26 25 24 24 23 23 22 20 20 22 23 23 25 15 14 14 17 10 9 8 9 17 18 22 1 7 16 7 11 10 6 10 6 3 8 9 13 19 33
29 29 29 28 29 28 27 27 26 25 25 23 23 23 21 22 25 27 22 16 15 17 16 15 12 14 20 22 18 7 4 10 16 13 16 7 4 4 3 2 10 17 18 28 33
33 31 29 30 29 28 28 28 26 26 25 25 23 21 21 19 23 13 9 6 16 19 18 16 16 19 19 24 24 16 10 11 21 25 23 11 9 5 3 2 7 13 25 25 24
26 31 34 30 31 29 28 28 28 27 25 25 24 23 20 15 6 2 7 8 7 12 13 13 9 15 7 8 21 8 18 19 25 26 21 8 13 9 10 9 16 16 24 29 25
34 27 28 32 33 33 31 28 28 28 27 26 23 22 21 16 26 13 16 12 8 8 13 11 18 16 8 8 19 9 11 25 29 28 15 17 8 9 18 16 15 13 16 26 26
35 36 32 26 29 34 35 32 28 27 27 26 25 23 24 22 31 26 18 19 17 15 17 14 16 16 19 13 8 14 17 18 20 16 12 7 9 12 23 21 19 18 15 19 23
30 34 35 37 28 26 31 37 33 27 26 27 25 24 32 38 17 14 11 16 14 13 18 20 19 22 14 8 18 21 9 10 15 9 7 19 9 11 24 23 28 27 20 11 6
25 23 23 30 40 32 23 29 35 29 25 25 24 24 27 19 27 35 18 19 16 20 17 19 20 17 10 11 17 9 8 6 9 7 17 12 15 14 26 30 29 29 21 12 13
27 25 23 23 22 34 33 22 26 31 22 23 19 19 19 7 30 35 33 29 22 16 20 14 9 4 6 2 5 5 12 7 10 12 14 12 21 16 33 27 29 24 16 16 16
28 26 23 22 21 21 26 30 19 22 22 20 22 10 22 17 23 22 32 33 21 17 19 19 7 4 3 4 11 11 9 12 13 16 12 15 15 19 22 18 25 27 23 20 18
30 27 24 20 18 19 17 20 11 10 33 27 23 31 4 11 11 26 23 31 25 16 12 21 9 13 18 17 19 16 16 12 10 12 9 15 11 10 14 14 13 15 28 26 29
30 29 27 25 22 18 17 13 16 3 8 44 37 33 40 31 15 19 23 22 24 20 14 16 23 18 17 21 20 20 19 22 20 18 13 8 8 9 8 8 21 22 30 33 35
33 32 28 25 22 23 23 25 25 21 8 18 51 46 31 27 19 30 27 33 11 18 20 25 18 19 20 21 20 21 21 20 19 15 16 6 8 6 8 9 21 28 32 39 44
33 30 30 24 24 25 28 25 21 27 6 5 17 24 45 28 35 34 34 28 16 20 20 21 24 20 25 26 21 24 20 21 20 11 12 7 15 9 8 10 9 19 29 35 37
34 33 30 28 25 14 7 10 9 13 7 8 12 14 32 41 9 40 48 38 24 23 19 17 23 29 31 28 25 22 19 19 19 14 11 17 8 7 12 14 16 20 26 38 45
33 35 32 32 34 33 24 22 19 8 10 7 9 18 19 40 37 2 42 43 29 20 26 30 16 24 30 24 22 21 20 20 14 7 17 14 10 17 13 10 8 18 29 39 45
34 35 36 34 43 29 20 15 5 12 9 9 10 17 23 21 27 30 23 28 22 21 27 19 26 21 11 24 22 22 18 6 3 8 15 13 14 18 5 18 16 7 23 39 46
35 35 39 41 37 25 21 9 12 15 19 8 10 20 25 19 21 32 27 25 31 26 2 20 20 30 16 26 16 20 17 10 8 7 11 16 14 8 8 12 23 23 38 42 41
32 36 45 48 39 32 22 14 13 13 22 21 12 16 24 24 12 26 34 31 27 35 24 14 25 8 29 26 21 17 19 10 6 6 2 5 3 4 3 6 9 15 34 33 40
31 34 48 47 40 36 14 27 14 19 19 30 29 19 19 28 24 27 28 30 30 33 27 19 3 18 19 25 25 21 7 13 2 7 17 5 5 7 4 7 9 17 25 32 36
30 21 39 48 42 34 16 19 19 27 24 20 32 27 20 21 29 22 22 15 38 31 31 22 8 1 1 22 27 17 11 5 5 8 6 3 5 11 16 10 16 19 31 36 39
36 14 24 50 14 13 18 29 26 22 40 21 12 19 33 27 31 25 26 34 24 34 32 33 14 16 16 6 5 19 20 17 11 11 9 2 6 2 5 9 14 20 26 31 37
39 32 26 58 16 14 19 24 29 24 23 14 13 12 18 22 19 33 30 30 12 33 25 26 7 10 10 12 20 11 13 21 12 5 13 8 6 7 6 8 20 26 29 35 34
32 11 13 40 43 22 22 22 25 34 27 25 13 20 26 12 18 12 28 23 28 19 37 23 5 27 21 12 12 15 21 28 21 12 12 13 4 3 7 11 16 25 32 34 36
31 8 16 12 20 26 28 20 25 21 28 25 19 30 24 13 18 20 14 25 22 18 27 23 23 19 24 4 16 24 19 30 29 27 16 16 18 8 9 9 17 28 27 31 32
16 6 20 11 20 26 31 27 31 30 19 32 24 21 24 27 20 6 19 23 25 11 30 17 14 16 15 7 5 12 18 13 21 21 19 16 15 14 11 10 15 27 32 32 32
27 29 26 15 22 20 28 27 27 20 22 26 26 23 27 27 21 33 28 12 17 21 17 20 8 14 13 16 9 3 20 20 21 19 26 21 22 8 10 16 16 31 36 34 34
Wind_Direction
258 259 258 259 260 261 261 260 260 263 267 273 278 282 289 294 292 290 281 265 282 287 257 303 261 266 255 260 261 257 287 267 271 270 281 156 149 184 168 64 359 98 114 156 166
252 256 258 259 259 259 260 261 262 265 267 269 277 285 289 299 300 287 284 259 258 252 260 277 237 238 239 245 247 220 206 237 263 285 305 322 351 111 127 238 271 121 118 135 164
247 250 249 254 255 258 258 260 260 263 267 269 273 280 287 301 311 287 309 241 235 248 266 248 253 282 247 245 244 249 236 249 263 271 292 321 323 268 113 244 237 174 150 148 154
261 246 249 251 248 249 253 258 258 259 260 266 270 275 279 282 265 84 33 3 275 251 236 228 272 282 289 274 264 252 261 254 259 272 289 302 306 327 291 256 278 292 172 156 167
261 266 252 246 250 251 245 248 253 257 259 263 264 268 274 255 237 220 305 298 293 243 225 241 266 256 248 258 266 253 252 257 263 268 280 296 295 284 295 301 273 278 182 173 176
268 261 263 261 249 247 252 243 245 251 255 257 261 262 264 250 259 260 261 268 263 254 237 249 270 271 273 275 286 299 301 297 302 295 299 287 267 268 272 280 278 274 258 186 186
274 271 269 262 264 258 249 249 242 244 247 252 254 258 257 246 244 208 233 235 251 246 239 256 259 273 273 315 277 270 309 306 282 281 278 283 288 239 244 255 261 259 251 222 202
280 284 280 276 263 260 261 253 244 240 246 250 251 253 254 253 263 238 223 228 223 223 241 250 262 272 270 284 304 304 281 271 272 259 269 254 261 259 246 237 242 239 233 215 183
275 279 282 289 284 275 256 265 246 234 237 243 243 246 262 260 242 242 224 232 227 234 232 248 291 263 278 253 314 251 261 263 285 236 241 226 243 246 246 249 229 207 199 163 160
274 275 281 286 288 290 277 251 268 230 221 220 233 243 255 264 231 222 231 228 233 240 244 246 251 219 194 182 219 240 233 246 244 257 248 259 245 234 243 280 228 185 180 167 166
271 271 273 275 291 293 300 246 257 229 209 195 190 211 210 252 263 221 225 216 222 243 222 200 206 209 216 220 231 239 267 264 269 266 246 259 220 212 237 229 173 188 173 176 161
268 268 268 273 275 282 273 230 206 235 213 217 223 228 232 241 285 261 218 197 207 216 218 224 224 209 216 222 230 241 253 269 279 284 286 286 230 204 221 209 197 197 189 159 153
267 265 264 265 271 262 264 258 234 245 244 202 215 218 210 233 238 248 225 205 208 213 210 218 215 208 216 228 233 234 234 246 249 271 281 294 259 250 251 207 212 216 215 169 166
266 262 257 257 259 260 264 286 261 244 263 240 201 240 223 219 255 232 225 198 215 214 206 235 224 220 216 226 223 240 236 244 250 246 257 240 270 256 224 217 237 231 225 169 156
264 260 252 241 236 214 193 311 315 208 257 166 197 195 200 197 160 213 217 223 219 210 194 209 180 208 221 213 214 241 238 249 243 251 247 244 270 235 221 219 228 243 247 167 161
263 256 249 243 243 240 241 273 315 205 230 217 199 190 175 203 213 356 197 215 219 217 232 229 238 204 221 230 225 228 233 241 256 264 254 228 236 243 228 232 232 241 224 168 161
261 256 241 239 236 237 241 240 282 219 148 218 211 192 195 190 210 214 196 207 209 205 227 226 229 230 205 223 229 237 216 222 278 222 243 198 232 238 228 227 246 234 160 157 159
263 254 244 234 232 218 206 187 218 233 195 193 182 199 202 188 201 204 213 208 213 210 186 218 234 219 211 232 208 213 212 205 199 220 248 222 238 226 221 248 235 231 160 155 153
260 247 234 230 224 211 211 232 207 219 206 221 225 209 201 199 198 188 212 210 214 210 208 201 230 182 207 224 217 224 230 197 208 260 269 224 302 340 189 268 191 181 149 148 150
249 241 227 221 215 203 209 233 232 241 244 210 222 203 193 195 201 188 196 215 221 222 216 231 296 205 218 213 223 220 198 196 110 217 245 227 217 229 226 192 122 137 144 144 147
239 230 233 213 197 194 207 218 221 238 252 256 226 228 205 194 196 194 190 200 205 211 212 217 211 234 169 217 209 215 209 186 143 183 207 230 244 196 230 187 159 153 148 149 151
225 222 223 188 193 195 206 208 219 220 242 247 305 242 234 206 201 203 202 206 200 201 203 211 214 237 229 300 294 214 215 195 194 198 228 172 235 101 56 185 150 143 142 145 152
220 220 203 179 197 194 204 210 219 221 236 247 241 255 214 220 210 206 197 214 199 190 200 205 204 221 245 270 273 229 251 214 185 128 212 193 249 177 117 102 142 144 147 154 159
211 201 212 190 195 190 189 206 215 222 233 234 247 260 271 269 252 220 214 212 209 196 200 172 196 204 214 219 194 228 241 213 207 206 196 209 166 143 169 151 156 157 159 157 162
200 199 185 188 197 189 191 195 208 215 216 235 232 237 245 238 241 235 252 229 202 208 184 176 205 201 220 192 195 205 218 198 207 216 204 223 223 207 190 168 162 164 157 152 163
197 161 170 185 182 185 187 205 201 210 207 223 240 246 233 251 261 247 220 233 200 207 187 189 204 184 200 189 173 201 190 184 218 218 229 233 228 193 169 154 160 156 157 163 165
178 170 159 165 176 188 200 196 210 204 219 229 224 239 238 248 288 255 261 291 283 189 174 181 140 168 205 183 156 189 204 185 202 213 210 211 217 157 161 195 198 165 165 168 169
Height
1489 1491 1491 1494 1495 1497 1497 1499 1500 1501 1502 1503 1503 1502 1502 1499 1496 1496 1492 1493 1492 1494 1496 1497 1497 1498 1499 1498 1497 1496 1507 1512 1495 1486 1477 1463 1462 1462 1463 1468 1469 1473 1478 1480 1487
1481 1484 1486 1488 1490 1491 1493 1495 1496 1498 1499 1499 1500 1500 1499 1497 1493 1488 1489 1489 1490 1492 1495 1493 1495 1495 1496 1494 1494 1493 1504 1497 1481 1481 1477 1470 1466 1464 1466 1467 1469 1475 1476 1481 1490
1475 1477 1478 1481 1483 1485 1487 1490 1491 1493 1495 1496 1497 1497 1497 1497 1492 1483 1482 1482 1486 1490 1492 1492 1493 1492 1492 1491 1489 1489 1491 1484 1478 1479 1476 1473 1468 1466 1468 1470 1470 1473 1472 1476 1482
1468 1469 1473 1474 1475 1478 1481 1484 1486 1488 1490 1492 1493 1493 1494 1496 1495 1481 1482 1484 1486 1487 1488 1490 1490 1489 1489 1489 1485 1488 1480 1479 1474 1474 1474 1471 1468 1467 1466 1469 1468 1471 1469 1472 1478
1463 1464 1465 1467 1470 1471 1473 1476 1480 1483 1485 1488 1489 1489 1491 1488 1477 1478 1479 1483 1485 1485 1486 1488 1489 1488 1487 1484 1482 1481 1477 1473 1470 1470 1470 1470 1468 1467 1466 1470 1469 1471 1474 1474 1476
1456 1457 1458 1460 1462 1464 1466 1468 1472 1476 1479 1482 1485 1485 1487 1475 1474 1479 1479 1481 1483 1484 1484 1486 1486 1485 1482 1480 1481 1476 1474 1470 1468 1466 1466 1468 1466 1466 1465 1467 1469 1469 1472 1475 1475
1451 1451 1451 1453 1455 1456 1459 1462 1465 1469 1473 1477 1479 1480 1475 1458 1470 1472 1473 1477 1480 1480 1481 1482 1483 1484 1479 1478 1476 1474 1476 1468 1464 1464 1464 1465 1469 1464 1461 1465 1465 1465 1469 1472 1474
1446 1447 1446 1447 1448 1451 1452 1455 1458 1463 1467 1471 1474 1474 1458 1458 1464 1467 1471 1471 1473 1475 1477 1479 1480 1478 1477 1477 1474 1476 1475 1481 1460 1463 1462 1467 1473 1458 1458 1459 1459 1461 1464 1467 1469
1440 1442 1443 1442 1443 1444 1447 1449 1449 1456 1460 1466 1470 1472 1454 1452 1453 1461 1467 1466 1470 1472 1474 1476 1477 1475 1475 1478 1486 1478 1484 1480 1468 1458 1459 1461 1463 1452 1453 1453 1453 1455 1458 1461 1464
1435 1436 1439 1439 1439 1440 1439 1445 1445 1445 1451 1459 1463 1472 1453 1447 1447 1449 1455 1462 1466 1469 1471 1472 1474 1473 1475 1480 1487 1477 1481 1471 1468 1449 1453 1455 1454 1446 1445 1445 1440 1448 1453 1457 1461
1429 1430 1433 1435 1435 1435 1438 1440 1445 1444 1439 1430 1435 1440 1437 1435 1447 1446 1451 1457 1461 1464 1465 1464 1469 1468 1470 1467 1462 1464 1467 1467 1457 1444 1452 1449 1446 1441 1440 1442 1441 1445 1448 1452 1455
1421 1424 1426 1430 1432 1431 1434 1433 1434 1435 1428 1428 1430 1427 1435 1438 1444 1442 1450 1451 1454 1454 1458 1461 1451 1455 1456 1459 1461 1464 1467 1465 1452 1442 1443 1442 1441 1438 1437 1439 1439 1441 1444 1447 1452
1413 1417 1420 1424 1428 1425 1427 1429 1430 1429 1418 1411 1413 1420 1425 1436 1437 1434 1438 1442 1442 1448 1448 1445 1437 1448 1453 1453 1455 1455 1458 1458 1456 1442 1437 1444 1446 1442 1433 1432 1437 1438 1440 1440 1440
1405 1409 1413 1419 1423 1419 1420 1426 1429 1432 1415 1405 1403 1404 1420 1431 1418 1430 1429 1437 1438 1433 1442 1437 1438 1438 1445 1443 1446 1451 1444 1443 1444 1450 1458 1441 1455 1440 1433 1430 1428 1432 1436 1438 1440
1397 1402 1405 1412 1412 1414 1419 1420 1422 1427 1398 1393 1388 1396 1397 1402 1394 1400 1416 1426 1420 1425 1432 1405 1414 1427 1425 1428 1434 1432 1439 1438 1436 1442 1448 1439 1456 1435 1427 1427 1425 1421 1424 1431 1433
1387 1392 1397 1401 1405 1406 1414 1420 1421 1415 1384 1389 1382 1382 1390 1386 1392 1397 1404 1415 1419 1421 1412 1403 1407 1408 1410 1421 1422 1426 1433 1433 1433 1436 1444 1435 1446 1426 1425 1422 1419 1414 1416 1424 1431
1379 1381 1385 1394 1389 1403 1412 1419 1425 1381 1380 1380 1372 1372 1373 1378 1391 1397 1400 1404 1409 1422 1408 1409 1401 1403 1405 1416 1418 1424 1432 1457 1466 1453 1439 1426 1434 1416 1408 1409 1410 1412 1414 1418 1424
1368 1371 1373 1378 1386 1399 1405 1407 1402 1367 1361 1355 1359 1361 1367 1366 1379 1384 1395 1395 1391 1392 1398 1408 1411 1391 1393 1398 1408 1409 1419 1436 1455 1451 1434 1424 1414 1408 1400 1400 1402 1404 1408 1414 1422
1356 1357 1358 1362 1379 1390 1397 1380 1374 1362 1348 1350 1350 1350 1360 1360 1360 1374 1383 1377 1382 1378 1389 1389 1385 1372 1383 1386 1398 1402 1407 1408 1429 1424 1439 1420 1405 1397 1392 1396 1391 1396 1408 1414 1419
1343 1346 1341 1354 1368 1380 1385 1365 1363 1362 1349 1346 1342 1333 1342 1347 1354 1357 1369 1356 1371 1369 1373 1372 1385 1369 1372 1381 1385 1389 1397 1413 1429 1445 1441 1420 1415 1412 1401 1400 1394 1400 1406 1413 1420
1332 1334 1323 1342 1356 1362 1355 1359 1358 1357 1355 1348 1335 1330 1324 1334 1337 1342 1341 1339 1356 1356 1363 1370 1374 1380 1372 1367 1379 1389 1393 1392 1405 1431 1435 1430 1415 1389 1389 1394 1394 1397 1403 1410 1417
1321 1316 1315 1328 1338 1337 1343 1343 1345 1345 1349 1350 1333 1326 1319 1317 1325 1328 1330 1330 1324 1337 1358 1347 1363 1379 1368 1366 1367 1371 1377 1381 1405 1419 1422 1429 1418 1382 1384 1386 1391 1399 1404 1410 1416
1300 1305 1305 1308 1310 1318 1326 1333 1339 1340 1338 1342 1340 1322 1316 1314 1316 1316 1315 1316 1320 1329 1339 1351 1363 1377 1384 1381 1375 1377 1378 1372 1381 1405 1408 1422 1406 1381 1381 1388 1391 1398 1404 1410 1416
1284 1283 1295 1285 1291 1303 1315 1319 1330 1330 1333 1334 1339 1336 1332 1319 1313 1307 1308 1309 1315 1316 1322 1337 1353 1345 1345 1337 1355 1370 1369 1365 1373 1396 1394 1396 1393 1383 1386 1388 1393 1399 1402 1407 1415
1251 1249 1256 1261 1273 1285 1298 1304 1313 1323 1322 1321 1326 1330 1331 1317 1311 1308 1318 1308 1304 1308 1316 1323 1337 1339 1335 1340 1337 1339 1351 1350 1358 1359 1388 1377 1384 1386 1382 1384 1388 1395 1403 1408 1415
1222 1231 1248 1254 1272 1280 1281 1289 1297 1303 1308 1315 1316 1309 1317 1318 1314 1303 1305 1310 1292 1302 1302 1313 1324 1337 1345 1342 1340 1342 1340 1349 1352 1356 1369 1372 1371 1370 1374 1382 1387 1392 1399 1405 1409
1197 1219 1235 1246 1262 1274 1262 1273 1279 1301 1305 1304 1311 1311 1309 1308 1316 1304 1304 1305 1301 1287 1296 1311 1324 1329 1337 1338 1348 1358 1336 1343 1353 1353 1353 1361 1351 1363 1369 1378 1381 1385 1390 1396 1402